This is the latest recevied weather packets stored in our database for station/object IW2NIA-3. If no packets are shown the sender has not sent any weather packets the latest 10 day(s).
| Time | Temp. | Humidity | Pressure | Rain* | Wind** | Luminosity | Snow |
|---|---|---|---|---|---|---|---|
| 1787654026 | 21.67° C | 89% | 1011 hPa | 0 mm | - | - | - |
| 1787653123 | 21.11° C | 93% | 1011 hPa | 0 mm | - | - | - |
| 1787652213 | 20.56° C | 94% | 1010.8 hPa | 0 mm | - | - | - |
| 1787651324 | 20.56° C | 94% | 1011.1 hPa | 0 mm | - | - | - |
| 1787650418 | 20° C | 94% | 1011.1 hPa | 0 mm | - | - | - |
| 1787649520 | 19.44° C | 95% | 1010.9 hPa | 0.25 mm | - | - | - |
| 1787648611 | 19.44° C | 94% | 1011 hPa | 0.51 mm | - | - | - |
| 1787647723 | 18.89° C | 94% | 1011 hPa | 0.76 mm | - | - | - |
| 1787646811 | 18.89° C | 94% | 1010.8 hPa | 1.02 mm | - | - | - |
| 1787645925 | 18.33° C | 94% | 1010.9 hPa | 0.76 mm | - | - | - |
| 1787645013 | 18.33° C | 94% | 1010.8 hPa | 0.51 mm | - | - | - |
| 1787644125 | 18.33° C | 94% | 1010.7 hPa | 0.76 mm | - | - | - |
| 1787643217 | 18.33° C | 94% | 1010.4 hPa | 1.27 mm | - | - | - |
| 1787642314 | 18.33° C | 94% | 1010.3 hPa | 1.52 mm | - | - | - |
| 1787641427 | 18.33° C | 93% | 1010.2 hPa | 2.29 mm | - | - | - |
| 1787640514 | 18.33° C | 93% | 1010.2 hPa | 1.78 mm | - | - | - |
| 1787639612 | 18.33° C | 93% | 1010.2 hPa | 1.27 mm | - | - | - |
| 1787638724 | 18.33° C | 93% | 1010 hPa | 2.54 mm | - | - | - |
| 1787637815 | 18.33° C | 93% | 1009.9 hPa | 5.08 mm | - | - | - |
| 1787636909 | 18.33° C | 93% | 1009.7 hPa | 5.08 mm | - | - | - |
| 1787636020 | 18.33° C | 93% | 1009.2 hPa | 4.83 mm | - | - | - |
| 1787635117 | 18.33° C | 92% | 1009.3 hPa | 3.3 mm | - | - | - |
| 1787634217 | 18.33° C | 92% | 1009.3 hPa | 0.25 mm | - | - | - |
| 1787633310 | 18.33° C | 92% | 1008.9 hPa | 0.51 mm | - | - | - |
| 1787632421 | 18.33° C | 92% | 1008.5 hPa | 0.51 mm | - | - | - |
* Rain latest hour (hover to see other rain measurements)
** Current wind speed in m/s (hover to see current wind gust speed)